Flag for France Weather past 2 weeks in Mulhouse, France

Now
70 °F

Light rain. Mostly cloudy.


Feels Like: 70 °F
Forecast: 60 / 80 °F
Wind: 7 mph from North

Location: Bale-Mulhouse

Current Time: Jul 23, 2014 at 2:00:08 AM

Latest Report: Jul 22, 2014 at 6:30 PM


Visibility: N/A

Pressure: 29.98 "Hg

Humidity: 94%

Dew point: 68 °F

Location of MulhouseLocation

Historic Weather in Mulhouse — Graph

°F

Mulhouse temperature yesterday

Maximum temperature yesterday: 70 °F (at 5:30 PM)
Minimum temperature yesterday: 63 °F (at 8:00 AM)
Average temperature yesterday: 65 °F

Past Weeks' High & Low Weather Summary

 TemperatureHumidityPressure
High93 °F (Jul 18, 4:35 PM)100% (Jul 11, 4:30 AM)30.18 "Hg (Jul 11, 4:30 AM)
Low54 °F (Jul 9, 8:00 PM)20% (Jul 18, 5:00 PM)29.80 "Hg (Jul 10, 3:30 AM)
Average66 °F79%29.98 "Hg
* Reported Jul 7 6:00 PM — Jul 22 6:30 PM, Mulhouse, Weather by CustomWeather, © 2014

Note: Actual official high and low records may vary slightly from our data, if they occured in-between our weather recording intervals... More about our weather records

Advertising

Mulhouse weather history for previous 24 hours

 ConditionsComfort  
Time TempWeatherWind HumidityBarometerVisibility
6:30 PM
Jul 22
70 °FLight rain. Mostly cloudy.7 mph94%29.98 "HgN/A
6:00 PM70 °FLight rain. Mostly cloudy.6 mph94%29.98 "HgN/A
5:30 PM70 °FLight rain. Mostly cloudy.5 mph88%29.98 "HgN/A
5:00 PM68 °FLight rain. Mostly cloudy.6 mph94%29.98 "Hg4 mi
4:30 PM68 °FLight rain. Mostly cloudy.6 mph94%29.98 "Hg4 mi
4:00 PM66 °FLight rain. Mostly cloudy.6 mph94%29.98 "Hg4 mi
3:30 PM66 °FMostly cloudy.5 mph94%29.98 "HgN/A
3:00 PM66 °FLight rain. Mostly cloudy.6 mph94%29.98 "HgN/A
2:30 PM66 °FMostly cloudy.6 mph94%29.98 "HgN/A
2:00 PM66 °FLight rain. Mostly cloudy.5 mph94%29.98 "HgN/A
1:30 PM66 °FLight rain. Low clouds.5 mph94%29.98 "HgN/A
1:00 PM66 °FMostly cloudy.6 mph88%29.98 "Hg6 mi
12:30 PM66 °FMostly cloudy.8 mph88%29.98 "Hg6 mi
12:00 PM64 °FLight rain. Partly sunny.7 mph94%29.95 "Hg6 mi
11:30 AM64 °FLight rain. Partly sunny.8 mph94%29.95 "Hg4 mi
11:00 AM64 °FLight rain. Fog.9 mph94%29.95 "Hg3 mi
10:30 AM64 °FLight rain. Fog.8 mph94%29.95 "Hg2 mi
10:00 AM63 °FRain. Fog.6 mph100%29.95 "Hg2 mi
9:30 AM63 °FRain. Partly sunny.7 mph94%29.95 "Hg6 mi
9:00 AM63 °FLight rain. Partly sunny.8 mph94%29.95 "Hg6 mi
8:30 AM63 °FLight rain. Partly sunny.8 mph94%29.95 "Hg4 mi
8:00 AM63 °FRain. Partly sunny.6 mph94%29.95 "Hg4 mi
7:30 AM64 °FLight rain. Partly sunny.6 mph94%29.95 "Hg4 mi
7:00 AM64 °FLight rain. Partly sunny.6 mph94%29.95 "HgN/A
6:30 AM64 °FPartly cloudy.2 mph94%29.95 "HgN/A
6:00 AM64 °FMostly cloudy.5 mph94%29.95 "HgN/A
5:30 AM64 °FPassing clouds.5 mph94%29.95 "HgN/A
5:00 AM64 °FPartly cloudy.3 mph94%29.95 "HgN/A
4:30 AM64 °FPassing clouds.6 mph94%29.92 "HgN/A
4:00 AM64 °FOvercast.6 mph94%29.92 "HgN/A
3:30 AM64 °FMostly cloudy.7 mph94%29.92 "HgN/A
3:00 AM64 °FMostly cloudy.7 mph94%29.95 "Hg5 mi
2:30 AM64 °FLight rain. Passing clouds.7 mph94%29.95 "Hg4 mi
2:00 AM64 °FLight rain. Overcast.9 mph94%29.95 "Hg5 mi
Weather by CustomWeather, © 2014

See weather overviewHow to use our weather pages